Theta_e
334 333 335 335 336 336 334 332 332 335 341 342 344 336 333 333 333 332 331 337 335 334 333 332 331 330 329 330 327 327 325 324 325 325 324 324 325 324 325 325 325 326 325
334 334 333 335 335 335 332 330 328 334 339 338 340 334 333 332 331 329 329 331 337 335 333 332 330 329 329 331 329 326 325 324 323 324 323 323 322 322 322 323 324 323 323
334 335 334 334 335 334 331 330 330 337 338 336 335 334 332 331 330 328 328 326 332 335 333 332 329 329 327 330 327 326 324 323 322 321 320 321 321 322 322 321 322 322 323
335 335 334 335 336 332 330 330 335 338 337 337 335 333 331 329 329 327 327 326 325 325 330 331 328 328 328 328 328 326 323 322 322 321 321 321 321 321 320 321 322 322 323
340 335 334 335 335 334 333 334 338 339 335 336 334 332 329 328 328 328 326 324 322 323 322 331 330 328 329 327 327 326 324 323 322 321 322 321 321 320 320 320 322 322 323
342 337 335 334 334 331 334 335 338 340 338 337 335 331 328 329 327 325 324 325 321 322 320 321 323 322 329 326 325 324 324 323 321 322 321 320 319 319 319 321 321 322 323
342 338 338 335 334 332 334 337 337 338 337 336 327 325 326 328 326 324 322 322 321 322 319 319 320 319 324 325 323 323 323 323 322 322 320 319 319 319 320 321 321 321 321
340 340 338 335 336 335 335 336 337 335 335 332 327 322 321 323 322 323 321 320 319 320 320 320 316 320 319 315 316 322 322 321 323 322 320 319 318 318 320 320 320 321 320
340 340 339 337 336 338 335 337 338 337 332 328 327 322 316 315 316 320 320 317 315 317 317 316 315 319 315 313 317 318 320 320 322 321 320 319 318 319 318 319 319 320 321
340 340 338 337 337 339 335 338 340 337 332 329 326 327 322 319 314 313 317 315 314 315 314 313 313 316 313 310 317 319 318 319 319 319 318 318 318 318 318 317 318 320 320
338 339 339 339 340 339 337 337 335 334 332 330 324 323 319 315 313 313 310 312 314 314 313 312 311 313 311 310 312 316 318 318 316 315 316 316 316 317 317 316 317 318 319
335 336 340 339 339 339 338 339 339 337 331 330 324 324 319 316 311 307 308 309 309 311 310 309 310 308 308 309 316 319 318 316 314 313 313 314 314 314 315 315 315 316 319
338 337 337 338 339 340 339 340 337 336 332 328 326 324 318 316 314 309 308 307 308 308 307 307 308 309 310 307 315 318 318 315 312 312 311 311 312 312 312 312 313 314 314
336 338 337 339 339 339 339 341 339 339 333 329 326 323 318 315 313 310 309 307 306 304 305 304 308 308 307 307 316 320 313 314 312 311 310 310 310 310 309 309 310 310 311
336 337 337 337 338 339 341 341 339 336 334 328 325 320 316 313 311 310 309 314 311 302 302 305 306 308 307 308 316 309 309 314 311 310 310 309 309 308 307 306 307 308 308
335 335 337 337 338 339 340 340 338 335 330 324 321 316 313 312 311 309 308 308 307 305 302 305 307 306 305 308 314 308 309 313 311 310 309 308 308 308 307 304 305 306 306
334 335 337 337 337 337 339 337 335 330 327 321 317 316 312 312 310 310 307 306 306 305 304 302 305 303 301 304 308 307 310 306 307 309 309 308 309 308 307 305 303 304 304
334 334 336 337 338 336 335 335 331 328 326 319 316 315 313 313 310 309 307 306 306 304 304 303 300 299 300 301 303 305 308 309 306 309 308 309 309 308 307 306 304 303 302
333 335 336 336 337 334 333 333 331 327 325 320 316 316 315 312 308 307 305 306 305 305 305 304 298 298 300 301 301 302 303 302 308 310 309 308 307 307 306 305 304 302 301
333 335 335 334 334 334 333 332 330 326 322 318 317 317 315 312 310 307 307 307 305 304 299 298 296 296 299 299 299 298 298 299 301 308 308 308 305 305 305 304 302 301 301
332 334 333 331 331 332 331 329 327 323 319 315 316 316 315 313 315 312 310 306 304 300 299 296 294 294 296 297 297 297 295 296 297 299 299 300 299 297 298 301 301 300 300
331 333 332 332 330 331 315 316 323 321 318 315 314 313 313 316 313 312 312 310 306 300 295 294 291 294 294 295 295 296 294 293 291 295 297 298 299 298 297 298 302 300 299
329 329 331 331 330 330 310 310 314 321 317 315 314 313 313 313 311 308 308 308 306 305 304 295 293 295 294 295 295 292 291 291 291 293 296 295 296 293 296 297 301 299 298
327 328 330 331 328 326 308 306 310 318 316 314 313 312 310 307 306 305 302 300 299 299 297 296 296 295 296 296 296 294 292 291 289 290 292 290 291 292 294 292 302 299 298
326 327 329 328 327 315 306 305 314 315 313 312 310 307 307 305 300 300 300 296 294 295 301 300 299 298 296 297 298 295 289 286 285 287 290 288 287 289 291 290 293 300 297
322 325 326 327 320 314 304 305 312 315 310 307 304 302 304 304 297 298 297 296 295 295 296 296 296 297 296 297 299 294 289 287 286 285 290 287 286 287 287 289 290 291 292
Wind_Speed
4 3 3 3 4 2 3 3 3 3 3 6 7 9 8 7 6 3 2 12 10 10 9 8 9 8 10 9 11 16 15 15 16 16 16 18 20 20 21 22 21 22 24
4 4 3 4 4 3 3 3 3 3 3 4 8 8 8 7 6 5 3 4 10 9 9 8 7 7 9 9 15 14 14 15 16 17 18 18 19 22 22 22 23 22 22
6 6 4 4 5 4 5 3 3 3 4 4 7 9 7 8 6 6 4 3 5 9 8 7 6 6 5 11 12 12 13 15 16 17 18 19 21 21 22 21 22 22 24
6 5 4 5 5 4 4 3 3 3 4 4 6 5 6 6 6 6 4 4 3 3 6 6 5 4 4 7 10 13 12 13 16 16 18 20 22 24 25 23 22 23 24
7 6 5 6 4 4 4 4 2 4 4 4 5 4 4 5 5 5 5 5 5 4 3 7 6 5 4 5 9 11 11 13 14 16 19 21 23 24 24 24 23 24 24
8 7 6 6 5 4 3 3 4 2 3 4 5 4 3 3 3 4 6 4 5 5 4 4 2 3 5 6 8 9 11 12 13 16 19 22 25 25 24 23 23 24 25
10 8 7 7 5 5 6 6 3 5 3 3 4 3 3 2 4 4 2 3 5 5 5 4 2 2 2 6 6 6 9 11 12 16 19 22 24 25 24 24 24 25 24
10 8 9 7 7 4 6 6 5 4 3 5 4 3 3 1 1 4 3 4 6 4 4 4 4 4 3 2 2 5 8 9 13 16 19 21 25 25 25 26 25 24 24
11 12 9 8 8 7 7 8 8 9 5 4 5 6 3 4 1 0 3 4 5 3 4 5 5 5 4 2 3 4 5 8 12 16 19 22 25 25 26 26 24 24 24
9 10 9 6 7 7 6 8 9 6 5 7 1 1 3 5 4 0 1 1 1 3 4 2 4 5 4 2 4 4 3 8 12 15 18 22 23 25 26 27 25 24 25
6 8 9 8 4 3 6 8 6 6 4 6 4 4 2 2 3 4 3 1 3 2 2 3 4 4 4 3 3 3 5 8 10 13 17 20 22 24 26 28 26 25 26
4 6 8 10 10 5 5 7 8 7 6 5 4 4 5 5 4 4 3 2 3 2 2 1 3 4 3 3 5 8 7 8 9 12 15 17 20 23 25 28 27 25 26
6 8 9 9 9 8 10 10 7 7 7 6 8 5 4 4 4 4 4 3 4 1 1 1 2 3 3 2 5 8 8 9 8 11 13 15 18 22 25 27 28 26 26
8 11 11 12 14 15 16 12 8 7 7 6 8 6 4 5 4 5 6 6 3 2 1 3 2 3 2 2 6 12 6 9 8 10 11 13 16 21 25 26 27 26 25
8 11 13 13 15 15 15 12 10 9 9 7 7 6 4 4 4 4 4 5 8 5 4 4 3 4 2 2 5 6 5 9 8 9 9 12 15 19 23 26 26 26 25
11 11 14 15 16 16 15 12 9 8 10 6 5 7 5 4 5 4 5 4 3 5 5 3 4 2 2 3 6 6 6 10 8 8 8 11 13 17 21 26 26 26 26
11 12 15 16 17 15 15 13 12 10 11 9 6 8 8 7 5 4 4 4 4 4 6 2 2 0 2 4 5 5 5 5 4 7 7 9 12 15 18 23 26 26 26
10 13 14 16 18 17 13 11 12 12 13 12 10 8 9 6 6 5 5 6 5 4 6 8 1 1 3 2 3 5 4 3 3 4 4 8 10 13 15 19 23 25 25
11 11 13 16 18 17 16 14 11 11 11 11 13 12 10 10 7 4 4 6 5 4 5 7 4 0 3 2 4 3 2 2 2 4 2 6 9 12 15 18 21 24 23
12 11 14 15 15 14 14 14 13 10 9 9 11 11 12 12 12 9 7 8 6 7 5 5 3 3 3 2 2 3 1 1 2 2 3 2 6 8 13 16 21 25 24
12 12 13 15 15 13 11 13 14 14 12 10 10 10 10 10 14 12 9 7 9 6 6 5 3 2 2 2 4 2 2 1 1 2 2 3 3 3 5 10 13 22 23
13 13 17 17 17 12 17 19 15 12 12 12 11 7 7 12 11 13 12 15 15 13 6 5 3 4 4 3 3 3 3 2 2 1 2 3 3 4 3 4 14 18 20
12 16 15 15 17 16 20 19 19 12 13 13 12 11 8 6 10 9 11 12 8 8 12 8 8 5 5 6 5 4 3 3 3 2 2 2 3 4 4 3 12 15 18
12 11 14 18 16 12 23 22 21 14 12 12 13 13 12 10 9 12 11 10 7 5 7 4 7 7 5 6 5 5 5 5 3 1 1 2 2 2 3 4 9 13 16
10 11 10 14 15 11 24 24 20 13 13 13 11 11 13 12 13 17 14 12 8 5 9 11 11 11 9 9 9 6 3 4 2 2 3 3 2 1 2 4 4 12 13
8 6 8 10 14 14 24 25 20 12 13 10 9 9 16 15 15 16 16 14 13 8 10 6 6 10 8 7 5 3 5 5 2 2 1 3 2 0 2 2 4 4 5
Wind_Direction
204 194 204 209 229 195 227 242 251 269 202 193 161 160 149 151 156 155 141 159 153 127 121 107 91 76 63 67 37 35 21 10 19 14 13 4 1 354 348 349 348 344 346
182 192 211 226 239 203 219 233 240 241 250 152 153 153 149 150 160 145 159 168 160 142 137 121 102 80 67 58 43 32 23 18 20 17 13 7 360 358 350 350 352 346 340
196 186 201 216 231 212 220 207 236 253 138 152 154 153 147 153 159 158 165 184 167 161 154 143 125 99 67 53 44 39 31 24 24 17 12 8 3 354 351 350 345 342 336
206 200 202 215 218 192 205 200 193 204 162 171 151 166 151 152 157 166 175 173 180 172 169 170 151 134 100 66 55 43 42 30 23 20 12 9 2 359 351 350 348 340 339
202 198 212 229 211 193 197 194 176 165 162 152 142 153 151 138 163 172 194 180 191 177 171 201 190 179 133 77 54 50 45 34 24 21 16 8 2 356 351 354 346 341 340
216 196 209 217 213 198 192 198 167 135 145 143 139 130 122 131 156 186 197 180 192 185 181 206 226 214 158 95 58 47 46 36 25 22 15 7 1 357 353 353 348 347 344
219 197 213 209 196 199 193 186 145 155 117 133 102 63 40 89 184 220 176 184 191 199 181 194 198 217 167 110 73 49 45 35 24 24 15 10 3 1 1 355 354 353 345
213 213 212 209 198 175 193 174 163 138 126 187 143 119 152 223 234 208 152 214 206 186 178 177 172 172 141 130 107 64 45 33 24 24 15 9 5 2 3 359 355 352 349
204 214 223 212 200 185 185 188 185 174 153 202 209 141 134 211 135 59 181 216 182 179 163 155 164 153 169 149 81 60 52 39 28 23 15 10 6 4 6 359 357 353 352
202 201 212 226 214 199 175 188 190 188 145 173 137 84 65 139 167 133 18 44 137 172 159 160 164 159 168 158 142 154 84 57 34 23 14 12 8 7 7 4 1 359 356
205 191 173 184 165 205 199 173 185 191 167 160 156 145 125 81 80 124 181 117 43 55 118 173 167 154 188 144 129 188 117 73 45 26 16 11 10 9 9 7 4 1 358
209 214 188 193 203 225 247 209 185 193 187 168 162 156 158 161 179 145 122 115 132 19 53 82 156 176 181 133 184 175 134 93 56 32 20 11 12 12 10 8 6 5 1
215 218 204 192 190 194 254 254 193 185 198 174 177 184 158 165 141 126 117 123 135 143 98 26 225 198 160 166 198 158 150 102 68 41 21 14 15 15 11 8 7 6 4
208 217 208 209 196 190 219 222 216 188 192 187 179 176 170 173 160 153 148 138 92 89 44 192 231 215 169 181 188 161 150 114 78 50 21 15 18 19 14 10 7 8 6
208 212 211 212 215 208 201 204 212 192 180 165 189 172 161 170 176 159 158 149 144 152 195 218 183 206 168 187 199 134 143 128 88 57 27 19 22 23 17 14 10 9 9
213 201 207 214 216 212 202 194 199 186 175 163 186 154 162 149 157 160 152 132 110 137 142 175 222 192 142 154 199 141 157 130 102 66 39 21 20 25 18 16 14 14 12
209 206 208 212 214 203 189 184 181 168 171 159 153 166 164 149 144 150 127 122 125 124 128 168 188 212 94 106 108 137 139 130 117 84 48 22 11 23 17 15 14 14 16
213 211 210 212 215 202 187 174 160 162 173 165 159 168 159 141 149 153 148 139 156 156 130 136 155 129 93 75 138 127 153 138 144 104 47 14 8 25 17 15 13 11 15
221 218 214 213 207 195 185 182 161 164 176 166 165 170 167 156 153 150 153 129 130 107 124 136 142 162 88 86 92 79 107 141 193 173 321 16 8 31 28 19 16 12 9
227 215 223 208 198 185 175 166 151 164 158 161 168 169 170 170 160 155 145 138 126 119 108 112 100 104 95 53 97 137 149 250 204 219 282 332 354 20 33 24 18 17 11
237 211 216 205 183 175 156 156 157 156 164 159 164 166 171 168 156 162 148 144 133 125 137 118 129 102 118 128 168 171 143 133 290 241 251 299 328 353 17 16 13 20 11
241 217 211 204 188 178 157 156 155 155 161 159 160 152 159 146 147 143 138 149 154 144 148 128 165 150 161 167 154 141 128 121 256 333 146 306 10 334 11 17 17 22 11
244 230 214 197 187 183 155 155 153 158 161 160 157 152 152 136 137 129 125 125 103 137 157 149 155 168 143 185 149 116 145 145 189 308 104 343 5 36 358 32 26 22 16
240 225 211 210 183 179 157 150 153 153 148 153 156 155 146 145 144 134 128 115 107 103 122 128 137 146 141 154 145 135 137 115 61 40 99 129 328 48 354 18 34 19 21
236 206 200 182 169 153 150 145 146 146 150 152 153 145 146 143 148 137 126 120 108 89 82 102 106 112 118 135 137 111 102 109 54 347 19 107 331 323 22 27 353 4 4
222 174 213 202 149 148 152 153 147 148 151 146 141 143 150 146 151 142 132 139 129 144 126 114 88 74 88 105 133 116 146 117 123 38 345 92 345 76 45 359 357 356 338